Weather History for YBOK - December, 2013

Change the Weather History Date:

Monday, December 9, 2013

  Actual Average Record
Temperature  
Mean Temperature 74 °F -  
Max Temperature 88 °F - - ()
Min Temperature 60 °F - - ()
Cooling Degree Days 9    
Growing Degree Days 24 (Base 50)    
Moisture  
Dew Point 55 °F    
Average Humidity 49    
Maximum Humidity 82    
Minimum Humidity 21    
Precipitation  
Precipitation 0.00 in - - ()
Sea Level Pressure  
Sea Level Pressure 29.92 in    
Wind  
Wind Speed 10 mph ()    
Max Wind Speed 16 mph    
Max Gust Speed -    
Visibility 6.2 miles    
Events      
T = Trace of Precipitation, MM = Missing Value Source: Averaged Metar Reports

Daily Weather History Graph

Daily Weather History Graph

Search for Another Location

Airport or City:

Trip Planner

Search our weather history database for the weather conditions in past years. The results will help you decide how hot, cold, wet, or windy it might be!

Date:

Astronomy

Dec. 09, 2013 Rise Set
Actual Time 4:50 AM AEST 6:40 PM AEST
Civil Twilight 4:24 AM AEST 7:06 PM AEST
Nautical Twilight 3:52 AM AEST 7:38 PM AEST
Astronomical Twilight 3:19 AM AEST 8:11 PM AEST
Moon 11:12 AM AEST (12/9) 11:47 PM AEST (12/9)
Length of Visible Light 14h 42m
Length of Day
13h 49m
Waxing Crescent, 44% of the Moon is Illuminated
Dec 9
Waxing Crescent
Dec 10
First Quarter
Dec 17
Full
Dec 25
Last Quarter
Jan 1
New

Hourly Weather History & Observations

Time (AEST) Temp. Heat Index Dew Point Humidity Pressure Visibility Wind Dir Wind Speed Gust Speed Precip Events Conditions
12:00 AM 64 °F - 54 °F 61% 29.99 in - East 9.2 mph - -  
12:00 AM 64.4 °F - 53.6 °F 68% 30.04 in 6.2 mi ENE 9.2 mph - N/A   Unknown
1:00 AM 63 °F - 53 °F 62% 29.97 in - ENE 10.4 mph - -  
1:00 AM 62.6 °F - 53.6 °F 72% 30.01 in 6.2 mi ENE 10.4 mph - N/A   Unknown
2:00 AM 60.8 °F - 53.6 °F 77% 30.01 in 6.2 mi ENE 11.5 mph - N/A   Unknown
3:00 AM 62 °F - 53 °F 66% 29.94 in - ENE 12.7 mph - -  
3:00 AM 62.6 °F - 53.6 °F 72% 29.98 in 6.2 mi ENE 12.7 mph - N/A   Unknown
4:00 AM 61 °F - 54 °F 70% 29.94 in - ENE 10.4 mph - -  
4:00 AM 60.8 °F - 53.6 °F 77% 29.98 in 6.2 mi ENE 10.4 mph - N/A   Unknown
5:00 AM 60.8 °F - 55.4 °F 82% 30.01 in 6.2 mi ENE 10.4 mph - N/A   Unknown
6:00 AM 65 °F - 55 °F 63% 29.97 in - ENE 9.2 mph - -  
6:00 AM 64.4 °F - 55.4 °F 73% 30.01 in 6.2 mi ENE 9.2 mph - N/A   Unknown
7:00 AM 68 °F - 55 °F 53% 29.98 in - NE 11.5 mph - -  
7:00 AM 68.0 °F - 55.4 °F 64% 30.04 in 6.2 mi NE 11.5 mph - N/A   Partly Cloudy
8:00 AM 71.6 °F - 55.4 °F 57% 30.04 in 6.2 mi NE 9.2 mph - N/A   Partly Cloudy
9:00 AM 75 °F - 55 °F 39% 29.96 in - NE 10.4 mph - -  
9:00 AM 75.2 °F - 55.4 °F 50% 30.01 in - NE 10.4 mph - N/A   Clear
10:00 AM 78 °F - 55 °F 34% 29.94 in - NE 12.7 mph - -  
10:00 AM 78.8 °F - 55.4 °F 44% 29.98 in - NE 12.7 mph - N/A   Clear
11:00 AM 80.6 °F 80.3 °F 53.6 °F 39% 29.95 in - NE 12.7 mph - N/A   Clear
12:00 PM 83 °F - 52 °F 24% 29.88 in - East 10.4 mph - -  
12:00 PM 82.4 °F - 51.8 °F 35% 29.92 in 6.2 mi East 10.4 mph - N/A   Partly Cloudy
1:00 PM 87 °F - 56 °F 24% 29.84 in - NE 12.7 mph - -  
1:00 PM 86.0 °F 84.5 °F 55.4 °F 35% 29.89 in 6.2 mi NE 12.7 mph - N/A   Partly Cloudy
2:00 PM 87.8 °F 85.7 °F 53.6 °F 31% 29.86 in - NNE 10.4 mph - N/A   Clear
3:00 PM 88 °F - 53 °F 21% 29.79 in - NE 12.7 mph - -  
3:00 PM 87.8 °F 85.7 °F 53.6 °F 31% 29.86 in - NE 12.7 mph - N/A   Clear
4:00 PM 87 °F - 53 °F 21% 29.77 in - NE 11.5 mph - -  
4:00 PM 87.8 °F 85.7 °F 53.6 °F 31% 29.83 in - NE 11.5 mph - N/A   Clear
5:00 PM 86.0 °F 84.5 °F 55.4 °F 35% 29.80 in - NE 13.8 mph - N/A   Clear
6:00 PM 83 °F - 54 °F 27% 29.77 in - NE 16.1 mph - -  
6:00 PM 84.2 °F 83.0 °F 55.4 °F 37% 29.83 in - NE 16.1 mph - N/A   Clear
7:00 PM 79 °F - 56 °F 34% 29.80 in - ENE 12.7 mph - -  
7:00 PM 78.8 °F - 55.4 °F 44% 29.86 in - ENE 12.7 mph - N/A   Clear
8:00 PM 75.2 °F - 57.2 °F 53% 29.86 in - ENE 12.7 mph - N/A   Clear
9:00 PM 73 °F - 57 °F 47% 29.83 in - ENE 11.5 mph - -  
9:00 PM 73.4 °F - 57.2 °F 57% 29.89 in - ENE 11.5 mph - N/A   Clear
10:00 PM 71 °F - 56 °F 49% 29.84 in - NE 10.4 mph - -  
10:00 PM 71.6 °F - 55.4 °F 57% 29.89 in - NE 10.4 mph - N/A   Clear
11:00 PM 69.8 °F - 55.4 °F 60% 29.89 in - NE 12.7 mph - N/A   Clear